Theta_e
314 315 315 317 317 317 318 317 315 312 312 315 317 315 316 316 311 315 310 310 310 312 311 314 314 313 314 316 317 318 322 322 320 319 319 316 319 314 315 317 320 322 320 326 327
314 315 315 316 317 314 316 313 311 311 310 314 312 313 313 312 312 311 314 310 310 311 311 315 313 314 316 315 316 319 321 322 319 318 319 317 318 317 317 317 317 319 318 324 329
314 315 316 316 316 310 310 310 309 309 309 310 313 311 311 310 311 316 310 310 310 310 313 315 313 315 316 316 315 316 320 317 315 315 316 317 316 315 317 318 318 318 317 320 329
314 314 315 316 316 309 309 308 308 308 309 310 311 311 310 310 311 312 311 311 311 311 314 313 313 314 316 317 314 317 313 314 314 314 314 317 315 316 316 317 315 316 316 317 325
314 314 315 316 315 308 308 308 308 309 309 310 310 310 309 309 310 314 312 311 312 313 314 312 314 313 316 316 314 316 314 313 312 313 313 314 314 316 315 314 314 315 315 317 325
314 314 315 315 312 308 308 309 309 309 309 309 309 309 308 312 310 312 312 312 314 313 312 312 314 313 313 314 316 312 314 313 312 312 312 314 313 312 312 313 313 314 315 316 321
314 314 315 314 310 307 308 309 309 309 308 308 308 308 310 311 311 312 314 313 313 312 312 312 314 313 312 313 310 311 315 314 312 312 313 312 313 314 310 311 311 312 314 315 316
314 313 314 310 308 307 308 308 308 308 307 307 307 307 311 310 311 312 314 312 311 311 312 312 313 312 313 311 311 312 314 316 311 312 312 311 316 309 310 310 311 312 312 313 314
314 313 314 311 307 307 308 307 307 307 307 307 307 309 310 310 312 311 312 311 310 311 312 312 312 311 311 314 314 312 314 313 309 311 312 312 314 311 310 311 313 313 312 312 312
314 313 314 308 307 307 307 307 307 307 307 307 308 310 308 311 312 310 311 311 311 311 312 312 312 314 311 314 313 314 312 310 311 312 312 313 314 313 312 311 314 313 313 312 312
313 313 313 307 307 307 307 307 308 309 308 309 309 309 307 311 312 310 311 311 311 312 314 310 314 314 314 313 309 313 311 312 310 311 313 313 314 314 313 311 313 312 311 310 311
313 312 311 307 307 307 307 310 308 308 309 310 309 308 310 311 311 310 311 312 312 312 310 312 313 313 310 308 310 311 311 312 312 310 312 312 314 314 309 309 308 308 308 308 309
313 312 309 308 307 308 308 308 308 308 308 309 309 309 311 311 311 311 311 310 311 311 311 312 310 309 310 309 311 311 312 312 313 309 309 309 313 310 308 309 309 309 308 309 309
312 311 309 308 310 308 308 308 308 309 310 310 312 310 311 310 311 311 310 310 309 312 310 311 307 309 310 311 312 312 310 311 311 313 313 309 312 311 309 311 311 311 311 310 310
312 311 310 309 311 310 308 309 309 310 313 311 312 310 311 310 310 311 310 311 310 309 310 311 308 309 311 311 310 311 310 311 311 313 313 312 312 312 309 313 312 311 310 310 310
312 311 310 311 311 307 307 309 312 312 315 312 311 311 311 310 310 310 311 310 309 310 310 310 307 309 310 307 309 308 310 310 311 312 312 312 312 311 310 313 312 310 309 309 309
311 312 311 311 313 308 308 310 318 316 310 313 312 311 312 311 311 311 311 311 312 311 311 311 310 309 309 310 309 309 313 312 313 313 312 306 309 311 308 311 312 311 310 309 309
311 311 312 311 314 311 311 316 316 312 310 312 312 311 311 311 311 310 311 312 310 310 311 312 312 311 310 312 312 311 312 314 315 312 311 306 311 311 307 307 310 310 309 309 309
309 312 313 312 314 316 313 315 312 310 312 313 311 311 312 311 311 312 312 312 312 309 311 311 310 309 308 308 311 310 310 309 309 302 313 311 310 308 307 309 309 309 309 309 309
306 310 311 312 314 316 315 314 311 308 313 313 313 312 312 312 312 312 312 311 311 309 308 310 311 309 308 308 308 309 309 311 310 316 315 309 310 313 310 311 311 309 310 309 309
303 306 308 311 313 314 315 313 312 311 312 314 314 314 312 312 311 311 312 309 310 309 309 309 313 310 309 310 311 308 309 308 310 311 318 313 311 310 311 312 311 310 309 309 308
301 303 303 307 310 313 314 312 311 312 312 314 313 313 312 312 311 312 311 310 308 308 311 310 312 313 311 308 307 308 310 310 312 311 308 311 314 308 312 312 311 309 308 308 308
298 299 302 304 307 309 309 312 312 312 313 314 314 313 311 312 312 312 311 310 309 309 310 310 313 315 313 310 307 309 308 309 308 311 314 317 313 307 310 309 309 308 308 308 308
298 301 300 300 300 304 310 311 312 312 313 312 313 313 313 313 313 312 312 311 309 308 310 310 310 313 312 311 312 311 309 308 310 313 312 311 311 310 309 310 308 308 308 307 307
298 298 298 305 303 302 306 309 312 313 312 312 313 314 314 315 315 314 313 311 310 310 310 310 314 311 311 311 310 311 311 309 310 311 312 312 310 312 311 310 309 309 307 306 306
297 298 297 297 298 305 304 306 310 312 313 313 313 313 313 314 315 314 313 313 313 310 311 310 313 311 311 310 311 312 311 310 311 311 311 310 310 311 310 309 308 307 306 305 304
297 297 297 297 299 304 306 305 306 308 308 310 312 313 313 312 311 311 310 311 311 312 312 312 311 312 315 310 311 314 313 311 311 311 311 311 311 308 310 308 308 308 306 305 304
Wind_Speed
20 20 21 23 23 25 25 25 28 24 19 14 16 21 20 21 11 21 26 9 13 4 15 13 14 14 13 9 7 6 4 6 6 8 7 10 6 4 4 5 5 6 1 7 19
22 22 23 22 22 25 24 26 27 28 24 18 12 13 15 15 15 19 24 16 15 14 14 17 17 16 7 7 5 4 3 6 5 5 7 13 6 9 5 5 5 6 7 11 20
22 23 22 21 21 24 25 26 26 26 25 26 18 16 17 16 12 28 16 22 17 17 16 16 16 16 5 7 4 3 3 5 5 4 9 14 7 7 5 4 7 8 11 12 20
22 24 23 22 21 24 26 24 24 24 23 23 20 15 15 17 9 18 26 23 18 19 19 19 17 8 5 8 4 5 3 3 4 5 8 12 11 6 8 1 4 7 8 13 20
22 24 23 23 23 26 25 23 23 23 24 22 21 19 19 16 23 6 16 23 20 21 21 21 21 9 7 8 7 3 6 5 5 6 7 11 5 3 6 9 7 4 9 13 16
24 24 24 23 25 26 25 23 22 22 22 21 20 21 20 14 17 12 16 21 21 22 22 22 15 13 8 7 4 4 8 9 4 4 4 4 3 2 3 4 10 10 7 11 16
25 25 26 25 25 26 24 22 22 20 20 21 21 20 17 17 9 13 17 19 21 22 23 21 13 9 13 8 8 10 6 4 3 1 2 2 3 6 2 4 0 8 9 9 14
26 25 25 27 27 25 24 22 21 19 18 18 18 18 8 19 11 13 19 19 20 20 19 16 16 12 4 15 6 4 3 6 2 1 1 3 5 1 1 5 5 5 8 11 11
27 26 26 27 27 26 24 21 20 17 16 16 16 14 6 10 14 15 18 20 19 18 18 16 14 7 8 10 5 1 7 7 3 1 1 3 3 3 1 3 5 2 2 6 10
27 27 27 29 28 26 25 21 19 18 16 13 9 9 9 10 19 18 19 20 18 21 17 11 5 4 4 8 13 9 6 3 5 5 2 4 9 4 3 4 6 5 4 6 8
28 29 27 30 29 28 29 26 17 8 23 7 12 4 9 14 18 17 19 22 20 15 7 3 7 14 17 10 2 10 7 7 2 2 3 6 8 8 4 6 8 7 6 7 9
29 26 28 29 30 30 31 19 19 10 9 5 5 5 12 17 9 20 25 11 12 14 6 6 14 8 10 9 6 9 8 5 3 2 2 2 9 6 4 2 4 8 4 4 4
24 24 28 29 30 31 34 21 19 19 6 4 5 9 12 13 6 20 23 11 9 9 10 10 2 14 7 7 10 2 8 6 4 4 3 2 5 2 3 6 5 5 2 3 4
21 26 28 29 26 28 33 21 19 15 4 3 6 6 11 10 4 18 18 9 3 11 8 3 3 11 11 9 8 6 4 7 11 6 2 2 3 3 2 5 6 6 6 8 11
26 26 27 31 17 28 28 20 20 9 5 8 5 9 13 6 12 11 12 5 8 7 7 5 10 10 8 7 6 3 7 7 4 4 1 2 4 4 5 4 4 7 10 12 15
26 25 27 28 17 30 31 21 15 3 7 7 7 8 8 3 3 10 9 6 7 5 6 5 1 3 3 5 1 13 10 7 4 2 4 4 4 5 7 6 7 9 12 14 16
26 26 30 28 20 29 29 23 5 7 5 8 7 8 15 6 5 6 14 9 8 8 9 3 2 2 5 10 5 3 14 3 3 4 5 2 3 2 5 7 14 17 14 12 14
25 30 31 30 17 28 33 7 8 8 7 4 6 11 13 11 1 5 14 13 4 4 6 10 7 10 6 5 9 13 7 6 7 5 4 2 6 2 2 4 13 12 13 14 14
21 27 30 29 22 28 25 11 11 7 11 9 10 14 7 5 5 9 16 16 14 10 8 8 3 2 2 2 5 7 7 4 7 2 2 5 3 4 5 7 14 15 15 14 15
10 24 27 29 24 30 11 12 8 3 9 10 7 9 16 15 9 12 15 9 7 10 2 7 5 2 2 3 2 5 11 4 1 6 5 5 5 6 14 17 16 16 17 14 15
6 10 14 25 28 18 14 10 3 3 5 9 6 7 9 10 10 10 16 4 8 10 2 7 3 3 2 7 11 5 5 2 2 2 5 5 6 3 22 23 21 21 18 16 15
9 2 6 13 8 10 14 11 5 6 4 3 3 6 10 12 11 8 12 3 13 17 11 3 5 5 10 3 4 2 5 10 6 7 2 1 3 2 15 26 25 21 19 17 18
6 3 4 8 4 8 2 7 6 7 5 5 3 2 3 7 6 5 6 3 8 10 16 8 4 4 3 1 1 6 5 7 3 3 7 6 4 3 17 21 21 23 21 20 20
4 2 3 4 2 2 6 11 10 2 3 3 4 3 7 6 3 10 5 1 6 5 5 9 3 10 13 10 7 9 8 8 11 5 7 10 5 10 15 17 21 21 22 20 20
2 1 1 2 3 2 1 7 17 10 3 6 1 5 8 5 5 5 6 4 3 4 3 4 8 6 1 2 4 6 15 15 16 22 12 19 12 20 21 21 27 24 21 21 22
4 3 3 2 1 5 3 3 9 17 12 9 5 9 4 9 10 10 10 7 5 3 5 0 3 3 3 0 4 2 8 18 22 20 17 10 13 10 28 19 20 25 25 23 22
5 6 4 2 1 4 5 4 2 5 3 8 12 8 7 7 14 12 9 11 9 9 7 7 6 4 6 4 0 5 16 16 14 16 18 18 18 10 19 23 28 29 27 25 24
Wind_Direction
210 201 194 196 194 189 195 196 194 192 166 167 175 157 172 169 187 212 249 235 234 210 198 199 191 184 171 188 156 155 209 183 166 167 136 154 167 160 176 141 167 188 126 151 170
207 203 201 197 192 190 194 197 193 198 193 174 188 183 179 178 215 221 216 247 225 219 197 199 185 175 184 163 143 192 217 183 168 149 145 160 174 154 172 152 194 189 180 171 174
207 202 203 193 194 191 193 196 193 195 193 191 183 189 196 195 211 223 226 243 219 203 201 200 192 175 182 147 142 180 200 156 168 151 150 151 159 161 172 196 208 216 190 185 182
208 203 203 192 194 190 193 195 193 191 193 192 195 195 195 195 178 219 244 209 205 194 195 191 188 199 158 145 159 169 82 115 145 170 144 156 141 169 202 170 160 205 193 198 192
210 209 196 193 189 188 191 192 194 193 193 189 188 197 194 193 218 251 205 190 192 191 191 188 188 186 156 140 142 133 142 100 127 143 121 140 132 160 217 221 217 183 210 206 201
213 212 194 193 190 187 188 188 190 193 189 188 189 190 191 216 225 235 194 187 189 189 187 188 201 201 122 140 178 121 131 123 130 123 121 154 148 191 203 187 231 222 208 207 209
211 211 195 190 188 184 187 185 184 188 189 187 185 190 201 222 218 213 193 188 190 190 187 188 196 181 143 122 115 133 112 119 75 96 95 152 212 220 181 210 129 207 210 214 215
205 205 194 190 186 181 184 181 180 179 185 182 181 185 227 224 218 196 188 185 182 186 187 181 178 153 121 124 77 121 126 174 106 216 11 240 228 178 316 199 187 199 215 222 224
202 201 193 187 180 178 178 176 173 171 174 176 177 177 226 208 197 193 186 184 174 171 175 170 162 122 132 146 131 202 188 202 177 190 128 239 264 82 263 92 154 155 227 233 233
197 196 197 180 176 175 171 169 161 162 162 163 185 198 221 201 186 180 176 174 161 158 147 169 134 138 134 180 194 179 168 179 194 168 183 199 244 200 261 277 272 290 288 273 261
196 194 191 177 174 172 167 154 145 146 170 190 189 208 163 168 171 175 170 164 157 157 167 153 182 190 179 179 141 154 148 157 142 83 200 236 264 265 291 284 286 293 299 282 277
188 194 183 176 174 172 172 166 168 160 181 171 169 180 162 156 149 171 166 161 165 167 133 157 207 175 123 123 131 145 149 134 107 64 204 210 268 282 350 12 327 307 307 291 278
186 197 178 177 175 176 176 167 167 150 118 198 181 186 162 167 152 171 175 157 161 154 183 184 159 145 134 146 141 152 172 169 150 140 86 282 247 201 83 80 57 34 50 79 111
181 184 178 173 175 179 183 169 172 145 105 220 206 185 170 161 119 175 170 156 152 176 148 155 126 154 147 171 173 177 178 137 134 165 182 319 240 155 103 80 64 66 78 93 103
174 178 178 174 183 182 179 163 171 153 171 171 163 166 163 167 131 180 178 126 164 150 180 146 157 155 174 186 185 138 140 122 120 101 172 200 249 141 159 130 90 87 95 99 105
173 180 172 178 179 185 174 167 157 163 223 162 150 160 138 115 111 144 170 131 118 92 47 95 104 149 124 69 13 141 109 77 78 105 226 179 243 188 181 165 144 126 112 108 108
175 181 179 180 186 178 176 165 158 200 150 173 177 160 174 150 133 184 180 167 161 142 177 99 128 108 145 97 139 171 156 128 175 194 234 30 208 317 149 133 152 140 126 116 112
169 183 186 187 178 175 167 173 212 160 183 118 139 151 175 157 154 147 172 184 225 105 146 168 192 180 169 164 179 182 193 173 180 190 167 88 222 222 158 130 148 140 133 126 119
159 183 186 190 186 179 166 200 200 181 134 135 135 158 169 196 146 166 195 196 188 192 163 165 173 67 104 128 171 174 208 86 104 30 164 194 231 234 163 168 164 154 147 139 129
142 169 183 196 187 180 190 201 194 160 125 153 153 186 185 184 166 187 176 192 186 198 229 181 138 11 90 115 51 208 145 145 124 159 214 201 250 208 181 181 174 166 159 147 137
180 130 178 174 188 183 203 194 160 197 152 170 151 146 188 175 188 196 185 141 188 179 177 144 105 114 140 218 180 145 182 95 131 193 188 184 228 219 187 180 174 168 162 154 146
152 148 147 168 184 198 209 192 157 171 204 170 123 111 165 167 172 185 195 230 177 157 178 187 109 147 196 10 337 325 177 179 190 199 247 4 246 315 187 173 168 164 164 159 154
116 102 182 162 167 205 202 185 176 169 191 166 129 161 150 156 154 198 171 126 164 173 171 183 160 114 118 279 322 226 192 198 125 61 192 173 227 54 159 162 167 166 168 164 159
135 142 122 144 182 158 165 188 192 201 149 127 125 101 127 151 24 175 140 153 176 183 160 160 148 199 200 207 137 199 191 200 190 202 202 232 182 173 173 172 173 174 169 167 164
103 115 142 167 208 145 360 166 190 186 204 174 125 210 155 137 144 148 149 134 102 157 135 191 192 192 126 106 181 206 184 184 197 219 209 238 219 186 187 186 183 171 166 167 168
138 142 115 88 147 161 199 215 186 204 178 203 206 180 169 164 195 180 151 174 175 149 162 163 143 118 167 89 50 212 208 198 209 216 230 234 235 196 191 177 171 176 174 174 173
163 139 145 124 190 173 182 167 227 154 347 261 192 166 197 139 109 101 107 121 146 153 162 157 135 140 213 142 38 283 223 203 217 218 221 227 229 173 176 190 186 182 181 179 177